This is the latest recevied weather packets stored in our database for station/object K3PPP. If no packets are shown the sender has not sent any weather packets the latest 10 day(s).
| Time | Temp. | Humidity | Pressure | Rain* | Wind** | Luminosity | Snow |
|---|---|---|---|---|---|---|---|
| 1778145255 | 3.89° C | 94% | 1012.6 hPa | 0 mm | - | 0 W/m² | - |
| 1778144950 | 3.89° C | 93% | 1012.5 hPa | 0 mm | - | 0 W/m² | - |
| 1778144647 | 3.89° C | 92% | 1012.3 hPa | 0 mm | - | 0 W/m² | - |
| 1778144344 | 3.89° C | 91% | 1012.5 hPa | 0 mm | - | 0 W/m² | - |
| 1778144041 | 4.44° C | 91% | 1012.3 hPa | 0 mm | - | 0 W/m² | - |
| 1778143738 | 4.44° C | 89% | 1012.3 hPa | 0 mm | - | 0 W/m² | - |
| 1778143435 | 5° C | 89% | 1012.4 hPa | 0 mm | - | 0 W/m² | - |
| 1778143132 | 4.44° C | 86% | 1012.4 hPa | 0 mm | - | 0 W/m² | - |
| 1778142828 | 5° C | 89% | 1012.4 hPa | 0 mm | - | 0 W/m² | - |
| 1778142525 | 5° C | 89% | 1012.4 hPa | 0 mm | - | 0 W/m² | - |
| 1778142220 | 5° C | 88% | 1012.5 hPa | 0 mm | - | 0 W/m² | - |
| 1778141918 | 5° C | 91% | 1012.8 hPa | 0 mm | - | 0 W/m² | - |
| 1778141613 | 5° C | 93% | 1012.6 hPa | 0 mm | - | 0 W/m² | - |
| 1778141311 | 5° C | 92% | 1012.6 hPa | 0 mm | - | 0 W/m² | - |
| 1778141006 | 5° C | 90% | 1012.8 hPa | 0 mm | - | 0 W/m² | - |
| 1778140702 | 5.56° C | 88% | 1012.6 hPa | 0 mm | - | 0 W/m² | - |
| 1778140398 | 5.56° C | 87% | 1012.6 hPa | 0 mm | - | 0 W/m² | - |
| 1778140095 | 5.56° C | 87% | 1012.5 hPa | 0 mm | - | 0 W/m² | - |
| 1778139793 | 5.56° C | 88% | 1012.5 hPa | 0 mm | - | 0 W/m² | - |
| 1778139490 | 5.56° C | 88% | 1012.3 hPa | 0 mm | - | 0 W/m² | - |
| 1778139186 | 5.56° C | 89% | 1012.3 hPa | 0 mm | - | 0 W/m² | - |
| 1778138883 | 5.56° C | 88% | 1012.4 hPa | 0 mm | - | 0 W/m² | - |
| 1778138581 | 5.56° C | 89% | 1012.5 hPa | 0 mm | - | 0 W/m² | - |
| 1778138278 | 5.56° C | 91% | 1012.3 hPa | 0 mm | - | 0 W/m² | - |
| 1778137974 | 5.56° C | 91% | 1012.2 hPa | 0 mm | - | 0 W/m² | - |
* Rain latest hour (hover to see other rain measurements)
** Current wind speed in m/s (hover to see current wind gust speed)